Date String (YYYY-MM-DD hh:mm:ss) UTC,Instrument flags,absolute air pressure of the measurement (hPa),sample flow rate (lpm),inlet stack bypass flow (lpm),air temperature of the measurement (°C),ambient temperature measured by the external sensor (°C),aerosol sample conditioner tube jacket temperature (°C),OPC LED temperature (°C),internal box temperature (°C),relative humidity of the measurement (%),span deviation,mass concentration of particles derived from Lorenz-Mie calculation of OPC scattering (μg/m³),mass concentration of particles derived from Lorenz-Mie calculation of OPC scattering (μg/m³),mass concentration of particles derived from Lorenz-Mie calculation of OPC scattering (μg/m³)
DateTimeUTC,F1_M11,P_M11,Q1_M11,Q2_M11,T1_M11,T2_M11,T3_M11,T4_M11,T5_M11,U1_M11,ZSPAN_M11,X2_M11,X0_M11,X1_M11
2024-06-12 12:00:00,SystemResetWarning,0829.4,4.99,000.00,031.0,030.3,000.0,039.3,032.7,013.7,0000.0,0004.55,0008.22,0003.98
2024-06-12 12:01:00,SystemResetWarning,0829.5,5.00,000.00,031.0,030.3,000.0,039.3,032.7,014.0,0000.0,0004.53,0008.02,0003.97
2024-06-12 12:02:00,SystemResetWarning,0829.5,5.00,000.00,031.0,030.3,000.0,039.3,032.7,014.5,0000.0,0004.54,0008.46,0003.98
2024-06-12 12:03:00,SystemResetWarning,0829.4,5.00,000.00,031.1,030.4,000.0,039.3,032.7,014.8,0000.0,0004.51,0008.45,0003.97
2024-06-12 12:04:00,SystemResetWarning,0829.3,5.00,000.00,031.1,030.4,000.0,039.4,032.7,014.3,0000.0,0004.51,0008.44,0003.99
2024-06-12 12:05:00,SystemResetWarning,0829.3,5.00,000.00,031.1,030.4,000.0,039.4,032.7,014.0,0000.0,0004.52,0008.56,0004.01
2024-06-12 12:06:00,SystemResetWarning,0829.4,5.00,000.00,031.1,030.4,000.0,039.4,032.7,013.9,0000.0,0004.54,0008.68,0004.02
2024-06-12 12:07:00,SystemResetWarning,0829.3,5.00,000.00,031.1,030.4,000.0,039.4,032.7,013.7,0000.0,0004.53,0008.59,0004.02
2024-06-12 12:08:00,SystemResetWarning,0829.3,5.00,000.00,031.1,030.4,000.0,039.4,032.8,013.5,0000.0,0004.49,0008.42,0004.02
2024-06-12 12:09:00,SystemResetWarning,0829.4,5.00,000.00,031.1,030.4,000.0,039.4,032.8,013.4,0000.0,0004.45,0008.65,0004.01
2024-06-12 12:10:00,SystemResetWarning,0829.4,5.00,000.00,031.1,030.4,000.0,039.4,032.8,013.5,0000.0,0004.45,0008.99,0004.01
2024-06-12 12:11:00,SystemResetWarning,0829.4,4.99,000.00,031.1,030.4,000.0,039.4,032.8,013.7,0000.0,0004.45,0009.07,0004.00
2024-06-12 12:12:00,SystemResetWarning,0829.4,5.00,000.00,031.1,030.4,000.0,039.4,032.8,013.8,0000.0,0004.48,0009.50,0004.00
2024-06-12 12:13:00,SystemResetWarning,0829.4,5.01,000.00,031.1,030.4,000.0,039.4,032.8,013.6,0000.0,0004.47,0009.47,0004.00
2024-06-12 12:14:00,SystemResetWarning,0829.5,5.01,000.00,031.1,030.4,000.0,039.4,032.8,013.3,0000.0,0004.45,0009.28,0003.99
2024-06-12 12:15:00,SystemResetWarning,0829.5,5.00,000.00,031.2,030.5,000.0,039.5,032.8,013.3,0000.0,0004.43,0009.68,0003.97
2024-06-12 12:16:00,SystemResetWarning,0829.5,5.00,000.00,031.2,030.5,000.0,039.5,032.8,013.3,0000.0,0004.40,0010.21,0003.95
2024-06-12 12:17:00,SystemResetWarning,0829.6,4.99,000.00,031.2,030.5,000.0,039.5,032.8,013.3,0000.0,0004.36,0010.09,0003.93
2024-06-12 12:18:00,SystemResetWarning,0829.6,5.00,000.00,031.2,030.5,000.0,039.5,032.8,013.4,0000.0,0004.33,0010.94,0003.93
2024-06-12 12:19:00,SystemResetWarning,0829.6,5.01,000.00,031.2,030.5,000.0,039.5,032.8,013.5,0000.0,0004.33,0012.48,0003.92
2024-06-12 12:20:00,SystemResetWarning,0829.6,5.00,000.00,031.2,030.5,000.0,039.5,032.8,013.5,0000.0,0004.33,0012.21,0003.92
2024-06-12 12:21:00,SystemResetWarning,0829.6,4.99,000.00,031.2,030.1,000.0,039.5,032.6,013.5,0000.0,0004.31,0011.83,0003.93
2024-06-12 12:22:00,SystemResetWarning,0829.5,4.99,000.00,030.8,027.7,000.0,039.6,031.4,013.7,0000.0,0004.31,0011.92,0003.93
2024-06-12 12:23:00,SystemResetWarning,0829.4,5.01,000.00,030.3,026.1,000.0,039.5,030.6,014.1,0000.0,0004.30,0011.78,0003.94
2024-06-12 12:24:00,SystemResetWarning,0829.4,5.01,000.00,030.1,026.5,000.0,039.4,030.7,014.4,0000.0,0004.28,0012.24,0003.94
2024-06-12 12:25:00,SystemResetWarning,0829.5,4.99,000.00,030.0,026.9,000.0,039.2,030.8,014.3,0000.0,0004.30,0012.18,0003.94
2024-06-12 12:26:00,SystemResetWarning,0829.5,5.00,000.00,030.0,027.4,000.0,039.0,031.1,014.5,0000.0,0004.31,0012.22,0003.95
2024-06-12 12:27:00,SystemResetWarning,0829.5,5.01,000.00,030.0,027.8,000.0,038.9,031.3,014.8,0000.0,0004.34,0011.56,0003.95
2024-06-12 12:28:00,SystemResetWarning,0829.5,5.00,000.00,030.0,028.1,000.0,038.8,031.4,014.6,0000.0,0004.37,0011.65,0003.97
2024-06-12 12:29:00,SystemResetWarning,0829.6,5.00,000.00,030.0,028.4,000.0,038.8,031.5,014.6,0000.0,0004.38,0010.89,0003.96
2024-06-12 12:30:00,SystemResetWarning,0829.6,5.00,000.00,030.0,028.7,000.0,038.7,031.6,014.7,0000.0,0004.40,0009.31,0003.95
2024-06-12 12:31:00,SystemResetWarning,0829.6,5.00,000.00,030.1,028.9,000.0,038.7,031.7,015.2,0000.0,0004.43,0009.91,0003.95
2024-06-12 12:32:00,SystemResetWarning,0829.6,5.00,000.00,030.1,029.0,000.0,038.7,031.8,014.8,0000.0,0004.41,0010.03,0003.93
2024-06-12 12:33:00,SystemResetWarning,0829.6,5.00,000.00,030.1,029.2,000.0,038.7,031.8,014.5,0000.0,0004.41,0010.11,0003.92
2024-06-12 12:34:00,SystemResetWarning,0829.7,5.00,000.00,030.2,029.3,000.0,038.6,031.9,014.4,0000.0,0004.39,0009.79,0003.89
2024-06-12 12:35:00,SystemResetWarning,0829.7,5.00,000.00,030.2,029.4,000.0,038.6,031.9,014.5,0000.0,0004.41,0008.89,0003.88
2024-06-12 12:36:00,SystemResetWarning,0829.7,5.00,000.00,030.2,029.5,000.0,038.6,032.0,014.5,0000.0,0004.40,0008.96,0003.85
2024-06-12 12:37:00,SystemResetWarning,0829.7,5.00,000.00,030.3,029.5,000.0,038.7,032.0,014.5,0000.0,0004.40,0008.82,0003.85
2024-06-12 12:38:00,SystemResetWarning,0829.7,5.00,000.00,030.3,029.6,000.0,038.7,032.0,014.4,0000.0,0004.37,0008.71,0003.83
2024-06-12 12:39:00,SystemResetWarning,0829.7,5.01,000.00,030.4,029.7,000.0,038.7,032.0,014.4,0000.0,0004.35,0008.64,0003.82
2024-06-12 12:40:00,SystemResetWarning,0829.7,5.01,000.00,030.4,029.7,000.0,038.7,032.1,014.4,0000.0,0004.35,0008.81,0003.82
2024-06-12 12:41:00,SystemResetWarning,0829.7,5.00,000.00,030.4,029.8,000.0,038.7,032.1,014.5,0000.0,0004.34,0009.09,0003.81
2024-06-12 12:42:00,SystemResetWarning,0829.7,5.00,000.00,030.5,029.8,000.0,038.7,032.2,014.6,0000.0,0004.29,0008.52,0003.80
2024-06-12 12:43:00,SystemResetWarning,0829.7,4.99,000.00,030.5,029.9,000.0,038.7,032.2,014.4,0000.0,0004.31,0008.31,0003.80
2024-06-12 12:44:00,SystemResetWarning,0829.7,4.99,000.00,030.5,029.9,000.0,038.7,032.2,014.5,0000.0,0004.30,0008.25,0003.79
2024-06-12 12:45:00,SystemResetWarning,0829.8,4.99,000.00,030.6,029.9,000.0,038.8,032.3,014.4,0000.0,0004.30,0008.37,0003.79
2024-06-12 12:46:00,SystemResetWarning,0829.8,5.01,000.00,030.6,030.0,000.0,038.8,032.3,014.3,0000.0,0004.30,0008.86,0003.79
2024-06-12 12:47:00,SystemResetWarning,0829.8,5.00,000.00,030.6,030.0,000.0,038.8,032.3,014.3,0000.0,0004.28,0009.23,0003.79
2024-06-12 12:48:00,SystemResetWarning,0829.9,4.99,000.00,030.7,030.0,000.0,038.8,032.4,014.4,0000.0,0004.25,0009.02,0003.78
2024-06-12 12:49:00,SystemResetWarning,0829.9,5.00,000.00,030.7,030.1,000.0,038.9,032.4,014.7,0000.0,0004.25,0009.02,0003.78
2024-06-12 12:50:00,SystemResetWarning,0829.9,5.00,000.00,030.7,030.1,000.0,038.9,032.4,014.6,0000.0,0004.24,0009.10,0003.78
2024-06-12 12:51:00,SystemResetWarning,0829.9,4.99,000.00,030.7,030.1,000.0,038.9,032.4,018.3,0000.0,0004.26,0009.50,0003.77
2024-06-12 12:52:00,SystemResetWarning,0829.9,5.00,000.00,030.8,030.2,000.0,038.9,032.5,019.1,0000.0,0004.26,0009.32,0003.77
2024-06-12 12:53:00,SystemResetWarning,0829.9,5.00,000.00,030.8,030.2,000.0,039.0,032.5,019.5,0000.0,0004.27,0009.66,0003.79
2024-06-12 12:54:00,SystemResetWarning,0829.9,4.99,000.00,030.8,030.2,000.0,039.0,032.5,017.8,0000.0,0004.27,0009.97,0003.79
2024-06-12 12:55:00,SystemResetWarning,0829.9,5.00,000.00,030.8,030.1,000.0,039.0,032.4,018.6,0000.0,0004.29,0009.82,0003.80
2024-06-12 12:56:00,SystemResetWarning,0829.9,5.00,000.00,030.6,028.2,000.0,039.1,031.5,016.4,0000.0,0004.31,0009.81,0003.81
2024-06-12 12:57:00,SystemResetWarning,0829.8,5.01,000.00,030.2,026.5,000.0,039.1,030.7,017.0,0000.0,0004.29,0009.26,0003.81
2024-06-12 12:58:00,SystemResetWarning,0829.8,5.01,000.00,030.0,026.8,000.0,039.0,030.7,016.4,0000.0,0004.31,0009.13,0003.82
2024-06-12 12:59:00,SystemResetWarning,0829.9,4.99,000.00,029.9,027.3,000.0,038.9,030.9,016.2,0000.0,0004.34,0009.47,0003.84
